www.pogodaiklimat.ru

Погода и климат >> Архив погоды >> Мексика >> Mexico City


АРХИВ ПОГОДЫ в Mexico City

Время (UTC), дата Ветер
(напр.,м/с)
 
Видим.   Явления Облачность Т
(С)
Тd
(С)
f
(%)
Тe
(С)
Тes
(С)
Комфортность P
(гПа)
Po
(гПа)
Тmin
(С)
Tmax
(С)
R
(мм)
R24
(мм)
S
(см)
12 15.04 СВ 1 2000 м мгла ясно +11.2 +8.7 85 +11 +11 по сезону 1016.3 776.3 +11.0 +26.7
15 15.04 штиль 0 1000 м мгла ясно +16.0 +10.3 69 +16 +27 по сезону 1015.8 777.7
18 15.04 ЮВ 1 3000 м мгла 1/1 840 м
[Cu hum]
+23.3 +10.8 45 +25 +48 комфорт 1013.7 776.8 +11.0 +23.8
06 16.04 С 1 10 км мгла 1/0 2000 м
[As trans]
+14.4 +10.3 76 +15 +15 по сезону 1012.3 779.4 0.0
12 16.04 С 1 2000 м дым {туман} ясно +11.8 +9.5 86 +12 +12 по сезону 1015.9 778.6 +11.5 +26.5
15 16.04 В 1 2000 м мгла 1/1 750 м
[Cu hum]
+16.6 +10.7 68 +17 +26 по сезону 1018.9 779.9
18 16.04 В 2 2000 м мгла 4/4 750 м
[Cu hum]
+22.6 +12.5 53 +25 +38 комфорт 1009.2 778.9 +10.5 +23.0
21 16.04 СВ 2 3000 м мгла 10/8 840 м
[Cu med, cong Cs]
+24.5 +12.9 48 +26 +29 жарко 1010.3 776.2
00 17.04 С 1 4000 м мгла 10/8 600 м
[Cu med, cong As op]
+23.4 +11.7 48 +26 +26 жарко 1006.7 775.5 +10.5 +26.5
03 17.04 С 2 6000 м дым {морось} 9/3 750 м
[Sc diur, vesp As op]
+20.4 +9.0 48 +22 +22 комфорт 1008.6 778.1 0.0
06 17.04 СЗ 2 12 км дым 9/0 2000 м
[As trans]
+18.0 +9.6 58 +19 +19 тепло 1009.5 778.4 0.0
09 17.04 СЗ 1 10 км дым 5/0 2000 м
[As trans]
+16.0 +9.6 66 +17 +17 тепло 1009.4 777.1
12 17.04 ЮЗ 1 7000 м дым 4/0 2000 м
[As trans]
+14.9 +8.9 67 +15 +15 тепло 1011.6 777.2 +14.1 +26.5
15 17.04 С 1 3000 м мгла 1/1 750 м
[Cu hum]
+19.8 +10.9 56 +22 +31 комфорт 1014.2 778.5
18 17.04 С 3 3000 м мгла 6/6 750 м
[Cu hum]
+24.0 +8.6 37 +25 +32 комфорт 1011.2 776.9 +14.1 +24.8
21 17.04 СЗ 3 3000 м мгла 8/8 840 м
[Cu hum]
+26.6 +13.5 44 +29 +31 жарко 1005.9 774.4
00 18.04 З 5 6000 м дым 6/6 600 м
[Cu hum]
+25.2 +11.0 41 +26 +27 жарко 1002.5 773.6 +14.1 +27.8
03 18.04 СВ 3 6000 м мгла 4/3 800 м
[Cu hum As trans]
+21.4 +9.9 48 +23 +23 комфорт 1004.1 775.7
06 18.04 З 1 12 км ясно +18.0 +10.5 62 +19 +19 тепло 1006.2 776.6 +14.1 +27.8
09 18.04 штиль 0 12 км мгла ясно +16.2 +9.9 66 +16 +16 тепло 1006.3 775.2
12 18.04 Ю 1 8000 м мгла 1/0
[Cs]
+14.8 +9.0 68 +15 +15 тепло 1009.2 775.6 +13.5 +27.8
15 18.04 Ю 1 2000 м мгла 1/0 600 м
[Ci fib]
+20.0 +12.3 61 +23 +32 комфорт 1012.0 776.9
18 18.04 В 2 4000 м мгла 5/5 750 м
[Cu hum]
+24.8 +14.1 51 +27 +38 жарко 1010.0 776.2 +13.5 +25.5
21 18.04 СЗ 4 6000 м дым 5/5 800 м
[Cu med, cong]
+27.1 +12.6 41 +29 +34 жарко 1005.3 774.1
00 19.04 С 2 6000 м дым 9/8 600 м
[Cu Sc As op]
+25.2 +10.3 39 +26 +26 жарко 1002.7 773.9 +13.5 +28.0
03 19.04 СВ 6 6000 м мгла 10/8 800 м
[Cu med, cong As trans]
+21.6 +11.3 52 +24 +24 комфорт 1005.1 776.5
06 19.04 СЗ 4 16 км дым 4/0 2000 м
[As trans]
+18.4 +9.6 56 +19 +19 тепло 1006.6 777.0 +13.5 +28.0
09 19.04 З 1 10 км дым ясно +16.2 +9.1 63 +17 +17 тепло 1007.6 776.3
12 19.04 СЗ 2 6000 м дым ясно +14.8 +7.1 60 +15 +15 тепло 1010.8 776.9 +14.2 +28.0
15 19.04 СЗ 3 8000 м мгла ясно +18.4 +8.8 54 +19 +26 по сезону 1013.7 778.2
18 19.04 СЗ 3 10 км мгла ясно +24.4 +9.9 40 +25 +43 комфорт 1012.4 777.8 +14.2 +25.0
00 20.04 С 5 6000 м дым 5/4 600 м
[Cu med, cong Ci fib]
+23.6 +11.7 47 +25 +26 комфорт 1005.4 775.5 +14.2 +28.0
03 20.04 СЗ 2 6000 м мгла {метель} 1/1 800 м
[Cu hum]
+17.3 +10.9 66 +18 +18 по сезону 1008.7 778.5
06 20.04 СЗ 3 8000 м мгла {метель} ясно +14.6 +10.8 78 +14 +14 по сезону 1011.1 779.1 +14.2 +28.0
09 20.04 СЗ 2 2000 м дым ясно +13.0 +10.1 83 +12 +12 по сезону 1011.8 777.5
12 20.04 С 1 1000 м дым {туман} 3/0
[Ci fib]
+11.8 +10.4 91 +12 +12 по сезону 1014.6 777.4 +11.5 +28.0
15 20.04 СВ 1 2000 м мгла 1/0
[Ci fib]
+16.8 +11.2 70 +18 +27 по сезону 1016.7 778.1
18 20.04 З 3 3000 м мгла ясно +22.8 +11.3 48 +25 +43 комфорт 1014.4 777.4 +11.0 +23.5
06 21.04 штиль 0 9000 м дым ясно +19.0 +10.6 58 +20 +20 тепло 1005.8 776.5 +11.0 +27.3
09 21.04 Ю 1 7000 м дым ясно +16.2 +9.5 64 +17 +17 тепло 1006.1 775.3
12 21.04 Ю 1 6000 м дым ясно +14.4 +8.5 68 +15 +15 тепло 1008.5 775.3 +13.8 +27.3
21 21.04 С 1 3000 м дым 8/8 800 м
[Cu med, cong]
+28.4 +11.1 34 +29 +33 жарко 1003.3 773.0
00 22.04 З 5 3000 м слабая морось 10/8 600 м
[Cu Sc As op]
+26.3 +11.5 40 +28 +28 жарко 1000.2 772.5 0.0
03 22.04 СЗ 6 4000 м слабая морось 10/8 750 м
[Cb cap As op]
+18.2 +13.1 72 +18 +18 по сезону 1004.6 776.5 0.0
06 22.04 Ю 2 10 км мгла {дождь, морось} 9/9 600 м
[]
+15.6 +13.5 87 +15 +15 по сезону 1006.9 776.8 0.0
09 22.04 СЗ 1 6000 м {туман} 3/0
[Ci]
+15.8 +13.4 86 +16 +16 тепло 1007.4 775.2

 

Местоположение метеостанции Mexico City (Мексика): широта 19.40 долгота -99.18 высота над уровнем моря 2303 м.

В архиве по умолчанию представлена погода в Mexico City за последнюю неделю. Архивные данные за месяц целиком и за предыдущие месяцы, начиная с января 2011 года, Вы можете получить, выбрав интересующий диапазон дат из раскрывающегося списка и нажав кнопку "Ввод!".


*Определитесь, кто Вы:
робот инопланетянин человек

Внимание! Время в таблицах - всемирное. Для получения местного времени необходимо прибавить поправку, которая в Mexico City равна -6 ч.

Смотрите также архив погоды в соседних городах и на ближайших метеорологических станциях:

Погода в Institute of Geography (Мексика) (9 км)
Погода в Toluca (Мексика) (54 км)
Погода в Cuernavaca (Мексика) (58 км)
Погода в Zacatepec (Мексика) (78 км)
Погода в Pachuca (Мексика) (93 км)
Погода в Tlaxcala (Мексика) (98 км)
Погода в Tlaxcala Airport (Мексика) (99 км)
Погода в Tulancingo (Мексика) (114 км)
Погода в Puebla (Мексика) (114 км)
Погода в Queretaro (Мексика) (183 км)

Пояснения к столбцам:

Ветер - указаны скорость ветра в м/с - средняя за 10 мин, порывы в срок и между сроками (в фигурных скобках) и направление, откуда дует ветер: С - северный, СВ - северо-восточный, В - восточный, ЮВ - юго-восточный, Ю - южный, ЮЗ - юго-западный, З - западный, СЗ - северо-западный.
Видимость - горизонтальная дальность видимости в метрах или километрах. При видимости от 1 до 10 км при отсутствии осадков обычно наблюдается дымка, при ухудшении видимости до 1 км и менее - туман. В сухую погоду видимость может ухудшаться дымом, пылью или мглою.
Явления - указаны атмосферные явления, наблюдавшиеся в срок или в последний час перед сроком; фигурными скобками обозначены явления, наблюдавшиеся между сроками (за 1-3 часа до срока); квадратными скобками обозначены град или гололедные отложения с указанием их диаметра в мм.
Облачность - указаны через наклонную черту общая и нижняя облачность в баллах и высота нижней границы облаков в метрах; квадратными скобками обозначены формы облаков: Ci - перистые, Cs - перисто-слоистые, Cc - перисто-кучевые, Ac - высококучевые, As - высокослоистые, Sc - слоисто-кучевые, Ns - слоисто-дождевые, Cu - кучевые, Cb - кучево-дождевые. Подробнее классификацию облаков см. в Атласе облаков (PDF).
T - Температура воздуха - температура, измеренная на высоте 2 м над землей.
Td - Температура точки росы - температура, при понижении до которой содержащийся в воздухе водяной пар достигнет насыщения.
f - Относительная влажность воздуха - влажноcть воздуха, измеренная на высоте 2 м над землей.
Te - Эффективная температура - температура, которую ощущает одетый по сезону человек в тени. Характеристика душности погоды. При расчете учитывается влияние влажности воздуха и скорости ветра на теплоощущения человека.
Tes - Эффективная температура на солнце - температура, которую ощущает человек, с поправкой на солнечный нагрев. Характеристика знойности погоды. Зависит от высоты солнца над горизонтом, облачности и скорости ветра. Ночью, в пасмурную погоду, а также при ветре 12 м/с и более поправка равна нулю.
P - Атмосферное давление - приведенное к уровню моря атмосферное давление.
Po - Атмосферное давление - измеренное на уровне метеостанции атмосферное давление.
Tmin - Минимальная температура - минимум температуры воздуха на высоте 2 м над землей.
Tmax - Максимальная температура - максимум температуры воздуха на высоте 2 м над землей.
R - Количество осадков - Количество выпавших осадков за период времени, мм. При наведении курсора мыши на число - период времени, за который выпало указанное количество осадков.
R24 - Количество осадков - Количество выпавших осадков за 24 часа, мм.
S - Снежный покров - Высота снежного покрова, см. При наведении курсора мыши на число - состояние снежного покрова и степень покрытия местности в баллах.